Time,TemperatureF,DewpointF,PressureIn,WindDirection,WindDirectionDegrees,WindSpeedMPH,WindSpeedGustMPH,Humidity,HourlyPrecipIn,Conditions,Clouds,dailyrainin,SoftwareType,DateUTC
2013-08-07 00:00:00,67.5,64.0,30.02,NW,305,1.0,3.0,89,0.00,,,0.03,meteohub,2013-08-07 04:00:00,
2013-08-07 00:02:00,67.5,64.0,30.02,NW,310,1.0,3.0,89,0.00,,,0.03,meteohub,2013-08-07 04:02:00,
2013-08-07 00:03:00,67.5,64.0,30.02,NW,310,0.0,3.0,89,0.00,,,0.03,meteohub,2013-08-07 04:03:00,
2013-08-07 00:06:00,67.5,64.0,30.02,NW,309,0.0,3.0,89,0.00,,,0.00,meteohub,2013-08-07 04:06:00,
2013-08-07 00:07:00,67.3,63.9,30.02,NW,309,0.0,3.0,89,0.00,,,0.00,meteohub,2013-08-07 04:07:00,
2013-08-07 00:09:00,67.3,63.9,30.02,West,267,0.0,3.0,89,0.00,,,0.00,meteohub,2013-08-07 04:09:00,
2013-08-07 00:15:00,67.3,63.9,30.02,West,266,0.0,2.0,89,0.00,,,0.00,meteohub,2013-08-07 04:15:00,
2013-08-07 00:21:00,67.3,63.9,30.02,NW,325,0.0,2.0,89,0.00,,,0.00,meteohub,2013-08-07 04:21:00,
2013-08-07 00:27:00,67.3,63.9,30.02,NNW,333,2.0,3.0,89,0.00,,,0.00,meteohub,2013-08-07 04:27:00,
2013-08-07 00:32:00,67.3,64.2,30.02,NW,323,0.0,5.0,90,0.00,,,0.00,meteohub,2013-08-07 04:32:00,
2013-08-07 00:37:00,67.1,64.0,30.02,NW,304,1.0,5.0,90,0.00,,,0.00,meteohub,2013-08-07 04:37:00,
2013-08-07 00:42:00,66.9,63.9,30.03,NW,304,1.0,5.0,90,0.00,,,0.00,meteohub,2013-08-07 04:42:00,
2013-08-07 00:47:00,66.9,63.9,30.03,NW,304,0.0,3.0,90,0.00,,,0.00,meteohub,2013-08-07 04:47:00,
2013-08-07 00:52:00,66.9,63.9,30.02,North,0,0.0,3.0,90,0.00,,,0.00,meteohub,2013-08-07 04:52:00,
2013-08-07 00:57:00,66.9,63.9,30.02,NNW,340,0.0,2.0,90,0.00,,,0.00,meteohub,2013-08-07 04:57:00,
2013-08-07 01:02:00,66.9,63.9,30.02,NNW,340,0.0,2.0,90,0.00,,,0.00,meteohub,2013-08-07 05:02:00,
2013-08-07 01:07:00,66.9,63.9,30.02,NNW,339,0.0,4.0,90,0.00,,,0.00,meteohub,2013-08-07 05:07:00,
2013-08-07 01:12:00,66.9,63.9,30.02,SSW,199,1.0,4.0,90,0.00,,,0.00,meteohub,2013-08-07 05:12:00,
2013-08-07 01:17:00,66.9,63.9,30.02,NW,316,2.0,4.0,90,0.00,,,0.00,meteohub,2013-08-07 05:17:00,
2013-08-07 01:22:00,66.9,63.9,30.01,NW,309,3.0,3.0,90,0.00,,,0.00,meteohub,2013-08-07 05:22:00,
2013-08-07 01:27:00,66.7,64.0,30.02,NW,305,0.0,3.0,91,0.00,,,0.00,meteohub,2013-08-07 05:27:00,
2013-08-07 01:32:00,66.7,64.0,30.02,NW,305,0.0,3.0,91,0.00,,,0.00,meteohub,2013-08-07 05:32:00,
2013-08-07 01:37:00,66.6,63.9,30.01,NW,306,0.0,3.0,91,0.00,,,0.00,meteohub,2013-08-07 05:37:00,
2013-08-07 01:42:00,66.6,63.9,30.01,NW,306,0.0,1.0,91,0.00,,,0.00,meteohub,2013-08-07 05:42:00,
2013-08-07 01:47:00,66.6,63.9,30.02,South,173,0.0,1.0,91,0.00,,,0.00,meteohub,2013-08-07 05:47:00,
2013-08-07 01:52:00,66.7,64.0,30.02,SE,136,0.0,2.0,91,0.00,,,0.00,meteohub,2013-08-07 05:52:00,
2013-08-07 01:57:00,66.7,64.0,30.02,NNW,330,1.0,2.0,91,0.00,,,0.00,meteohub,2013-08-07 05:57:00,
2013-08-07 02:02:00,66.7,64.0,30.02,ESE,122,1.0,3.0,91,0.00,,,0.00,meteohub,2013-08-07 06:02:00,
2013-08-07 02:07:00,66.7,64.0,30.02,SSW,212,0.0,3.0,91,0.00,,,0.00,meteohub,2013-08-07 06:07:00,
2013-08-07 02:12:00,66.9,64.2,30.02,SSW,202,0.0,3.0,91,0.00,,,0.00,meteohub,2013-08-07 06:12:00,
2013-08-07 02:17:00,66.9,64.2,30.02,SSW,202,0.0,3.0,91,0.00,,,0.00,meteohub,2013-08-07 06:17:00,
2013-08-07 02:22:00,66.9,64.2,30.01,SSW,209,0.0,3.0,91,0.00,,,0.00,meteohub,2013-08-07 06:22:00,
2013-08-07 02:27:00,66.9,64.2,30.01,ESE,114,0.0,1.0,91,0.00,,,0.00,meteohub,2013-08-07 06:27:00,
2013-08-07 02:32:00,66.7,64.0,30.01,WNW,290,0.0,1.0,91,0.00,,,0.00,meteohub,2013-08-07 06:32:00,
2013-08-07 02:37:00,66.7,64.0,30.01,NW,310,2.0,2.0,91,0.00,,,0.00,meteohub,2013-08-07 06:37:00,
2013-08-07 02:42:00,66.6,64.2,30.01,NW,304,0.0,3.0,92,0.00,,,0.00,meteohub,2013-08-07 06:42:00,
2013-08-07 02:47:00,66.4,64.0,30.01,NW,305,0.0,3.0,92,0.00,,,0.00,meteohub,2013-08-07 06:47:00,
2013-08-07 02:52:00,66.2,63.9,30.01,NW,307,0.0,3.0,92,0.00,,,0.00,meteohub,2013-08-07 06:52:00,
2013-08-07 02:57:00,66.2,64.0,30.01,NNW,336,0.0,2.0,93,0.00,,,0.00,meteohub,2013-08-07 06:57:00,
2013-08-07 03:02:00,66.2,64.0,30.01,NNW,335,0.0,3.0,93,0.00,,,0.00,meteohub,2013-08-07 07:02:00,
2013-08-07 03:07:00,66.4,64.2,30.01,NNW,335,0.0,3.0,93,0.00,,,0.00,meteohub,2013-08-07 07:07:00,
2013-08-07 03:12:00,66.4,64.2,30.01,NNW,335,0.0,2.0,93,0.00,,,0.00,meteohub,2013-08-07 07:12:00,
2013-08-07 03:17:00,66.2,63.9,30.01,NNW,335,0.0,0.0,92,0.00,,,0.00,meteohub,2013-08-07 07:17:00,
2013-08-07 03:22:00,66.0,63.9,30.01,NNW,335,0.0,0.0,93,0.00,,,0.00,meteohub,2013-08-07 07:22:00,
2013-08-07 03:27:00,66.0,63.9,30.01,NNW,335,0.0,1.0,93,0.00,,,0.00,meteohub,2013-08-07 07:27:00,
2013-08-07 03:32:00,65.8,63.7,30.01,NNW,336,0.0,1.0,93,0.00,,,0.00,meteohub,2013-08-07 07:32:00,
2013-08-07 03:37:00,65.8,63.7,30.01,NNW,336,0.0,1.0,93,0.00,,,0.00,meteohub,2013-08-07 07:37:00,
2013-08-07 03:42:00,65.8,63.7,30.01,NNW,336,0.0,2.0,93,0.00,,,0.00,meteohub,2013-08-07 07:42:00,
2013-08-07 03:47:00,65.8,63.7,30.01,NNW,336,0.0,2.0,93,0.00,,,0.00,meteohub,2013-08-07 07:47:00,
2013-08-07 03:52:00,65.8,63.7,30.01,NNW,336,0.0,2.0,93,0.00,,,0.00,meteohub,2013-08-07 07:52:00,
2013-08-07 03:57:00,65.7,63.9,30.01,NNW,336,0.0,1.0,94,0.00,,,0.00,meteohub,2013-08-07 07:57:00,
2013-08-07 04:02:00,65.8,64.0,30.01,NNW,336,0.0,0.0,94,0.00,,,0.00,meteohub,2013-08-07 08:02:00,
2013-08-07 04:07:00,65.8,64.0,30.01,NNW,336,0.0,2.0,94,0.00,,,0.00,meteohub,2013-08-07 08:07:00,
2013-08-07 04:12:00,65.8,64.0,30.02,NNW,336,0.0,2.0,94,0.00,,,0.00,meteohub,2013-08-07 08:12:00,
2013-08-07 04:17:00,65.8,64.0,30.02,NNW,336,0.0,2.0,94,0.00,,,0.00,meteohub,2013-08-07 08:17:00,
2013-08-07 04:22:00,65.8,64.0,30.02,NNW,344,0.0,3.0,94,0.00,,,0.00,meteohub,2013-08-07 08:22:00,
2013-08-07 04:27:00,65.8,64.0,30.02,North,351,0.0,3.0,94,0.00,,,0.00,meteohub,2013-08-07 08:27:00,
2013-08-07 04:32:00,65.8,64.0,30.02,North,351,0.0,3.0,94,0.00,,,0.00,meteohub,2013-08-07 08:32:00,
2013-08-07 04:37:00,65.8,64.0,30.01,East,100,0.0,2.0,94,0.00,,,0.00,meteohub,2013-08-07 08:37:00,
2013-08-07 04:42:00,65.8,63.7,30.01,East,100,0.0,1.0,93,0.00,,,0.00,meteohub,2013-08-07 08:42:00,
2013-08-07 04:47:00,65.8,64.0,30.01,East,80,0.0,1.0,94,0.00,,,0.00,meteohub,2013-08-07 08:47:00,
2013-08-07 04:52:00,65.8,64.0,30.01,NW,309,2.0,2.0,94,0.00,,,0.00,meteohub,2013-08-07 08:52:00,
2013-08-07 04:57:00,65.8,64.0,30.01,NW,312,0.0,3.0,94,0.00,,,0.00,meteohub,2013-08-07 08:57:00,
2013-08-07 05:02:00,65.8,64.0,30.01,SE,133,0.0,3.0,94,0.00,,,0.00,meteohub,2013-08-07 09:02:00,
2013-08-07 05:07:00,65.8,64.0,30.01,WSW,241,0.0,3.0,94,0.00,,,0.00,meteohub,2013-08-07 09:07:00,
2013-08-07 05:12:00,66.0,64.2,30.01,WSW,241,0.0,4.0,94,0.00,,,0.00,meteohub,2013-08-07 09:12:00,
2013-08-07 05:17:00,66.0,64.2,30.01,South,184,0.0,4.0,94,0.00,,,0.00,meteohub,2013-08-07 09:17:00,
2013-08-07 05:22:00,66.2,64.8,30.01,SE,128,0.0,2.0,95,0.00,,,0.00,meteohub,2013-08-07 09:22:00,
2013-08-07 05:27:00,66.4,64.6,30.01,SW,227,1.0,2.0,94,0.00,,,0.00,meteohub,2013-08-07 09:27:00,
2013-08-07 05:32:00,66.4,64.6,30.01,WSW,238,0.0,2.0,94,0.00,,,0.00,meteohub,2013-08-07 09:32:00,
2013-08-07 05:37:00,66.4,64.6,30.01,NW,309,0.0,2.0,94,0.00,,,0.00,meteohub,2013-08-07 09:37:00,
2013-08-07 05:42:00,66.4,64.6,30.01,WNW,290,0.0,2.0,94,0.00,,,0.00,meteohub,2013-08-07 09:42:00,
2013-08-07 05:47:00,66.4,64.6,30.01,WNW,299,0.0,2.0,94,0.00,,,0.00,meteohub,2013-08-07 09:47:00,
2013-08-07 05:52:00,66.4,64.6,30.01,WNW,299,0.0,2.0,94,0.00,,,0.00,meteohub,2013-08-07 09:52:00,
2013-08-07 05:57:00,66.2,64.4,30.01,WNW,299,1.0,2.0,94,0.00,,,0.00,meteohub,2013-08-07 09:57:00,
2013-08-07 06:02:00,66.0,64.2,30.01,WNW,299,0.0,2.0,94,0.00,,,0.00,meteohub,2013-08-07 10:02:00,
2013-08-07 06:07:00,66.0,64.2,30.02,WNW,299,0.0,2.0,94,0.00,,,0.00,meteohub,2013-08-07 10:07:00,
2013-08-07 06:12:00,66.0,64.2,30.01,WNW,299,0.0,2.0,94,0.00,,,0.00,meteohub,2013-08-07 10:12:00,
2013-08-07 06:17:00,66.2,64.8,30.01,WNW,302,1.0,1.0,95,0.00,,,0.00,meteohub,2013-08-07 10:17:00,
2013-08-07 06:24:00,66.2,64.8,30.02,NNW,327,0.0,2.0,95,0.00,,,0.00,meteohub,2013-08-07 10:24:00,
2013-08-07 06:30:00,66.2,64.8,30.02,NNW,327,0.0,2.0,95,0.00,,,0.00,meteohub,2013-08-07 10:30:00,
2013-08-07 06:36:00,66.4,64.9,30.01,WSW,253,0.0,1.0,95,0.00,,,0.00,meteohub,2013-08-07 10:36:00,
2013-08-07 06:42:00,66.6,65.1,30.01,NW,319,0.0,1.0,95,0.00,,,0.00,meteohub,2013-08-07 10:42:00,
2013-08-07 06:47:00,66.6,65.1,30.01,NW,319,0.0,2.0,95,0.00,,,0.00,meteohub,2013-08-07 10:47:00,
2013-08-07 06:48:00,66.6,64.8,30.01,NW,319,0.0,2.0,94,0.00,,,0.00,meteohub,2013-08-07 10:48:00,
2013-08-07 06:54:00,66.4,64.6,30.01,NW,319,0.0,2.0,94,0.00,,,0.00,meteohub,2013-08-07 10:54:00,
2013-08-07 07:00:00,66.4,64.6,30.01,NW,319,0.0,2.0,94,0.00,,,0.00,meteohub,2013-08-07 11:00:00,
2013-08-07 07:06:00,66.4,64.9,30.01,NW,319,0.0,2.0,95,0.00,,,0.00,meteohub,2013-08-07 11:06:00,
2013-08-07 07:12:00,66.6,65.1,30.01,SSW,196,0.0,2.0,95,0.00,,,0.00,meteohub,2013-08-07 11:12:00,
2013-08-07 07:17:00,66.7,65.3,30.01,SSW,193,0.0,2.0,95,0.00,,,0.00,meteohub,2013-08-07 11:17:00,
2013-08-07 07:22:00,66.7,65.3,30.01,SE,132,0.0,2.0,95,0.00,,,0.00,meteohub,2013-08-07 11:22:00,
2013-08-07 07:27:00,66.7,65.3,30.01,WNW,292,1.0,2.0,95,0.00,,,0.00,meteohub,2013-08-07 11:27:00,
2013-08-07 07:32:00,66.7,64.9,30.01,NNW,329,0.0,2.0,94,0.00,,,0.00,meteohub,2013-08-07 11:32:00,
2013-08-07 07:37:00,66.7,64.9,30.02,NNW,329,0.0,3.0,94,0.00,,,0.00,meteohub,2013-08-07 11:37:00,
2013-08-07 07:42:00,66.7,64.9,30.02,NNW,329,0.0,3.0,94,0.00,,,0.00,meteohub,2013-08-07 11:42:00,
2013-08-07 07:47:00,66.6,64.8,30.02,NNW,329,0.0,3.0,94,0.00,,,0.00,meteohub,2013-08-07 11:47:00,
2013-08-07 07:52:00,66.6,64.8,30.02,NNW,329,0.0,2.0,94,0.00,,,0.00,meteohub,2013-08-07 11:52:00,
2013-08-07 07:57:00,66.7,64.9,30.02,NNW,329,0.0,0.0,94,0.00,,,0.00,meteohub,2013-08-07 11:57:00,
2013-08-07 08:02:00,66.7,65.3,30.01,NNW,329,0.0,1.0,95,0.00,,,0.00,meteohub,2013-08-07 12:02:00,
2013-08-07 08:07:00,66.9,65.5,30.01,NNW,328,0.0,1.0,95,0.00,,,0.00,meteohub,2013-08-07 12:07:00,
2013-08-07 08:12:00,67.3,65.8,30.01,NNW,328,0.0,1.0,95,0.00,,,0.00,meteohub,2013-08-07 12:12:00,
2013-08-07 08:17:00,67.5,66.0,30.01,NNW,327,0.0,0.0,95,0.00,,,0.00,meteohub,2013-08-07 12:17:00,
2013-08-07 08:22:00,67.6,65.8,30.01,SE,141,0.0,1.0,94,0.00,,,0.00,meteohub,2013-08-07 12:22:00,
2013-08-07 08:27:00,67.8,66.0,30.01,SSW,194,0.0,1.0,94,0.00,,,0.00,meteohub,2013-08-07 12:27:00,
2013-08-07 08:32:00,68.2,66.0,30.02,East,85,1.0,1.0,93,0.00,,,0.00,meteohub,2013-08-07 12:32:00,
2013-08-07 08:37:00,68.4,66.2,30.02,West,259,0.0,2.0,93,0.00,,,0.00,meteohub,2013-08-07 12:37:00,
2013-08-07 08:42:00,68.5,66.2,30.02,NW,306,0.0,2.0,92,0.00,,,0.00,meteohub,2013-08-07 12:42:00,
2013-08-07 08:47:00,68.7,66.4,30.02,NW,307,0.0,2.0,92,0.00,,,0.00,meteohub,2013-08-07 12:47:00,
2013-08-07 08:52:00,69.1,66.7,30.02,WSW,248,0.0,2.0,92,0.00,,,0.00,meteohub,2013-08-07 12:52:00,
2013-08-07 08:58:00,69.3,66.9,30.02,WSW,248,0.0,1.0,92,0.00,,,0.00,meteohub,2013-08-07 12:58:00,
2013-08-07 09:04:00,69.4,66.7,30.02,WSW,257,0.0,1.0,91,0.00,,,0.00,meteohub,2013-08-07 13:04:00,
2013-08-07 09:10:00,70.0,67.3,30.02,SE,145,0.0,1.0,91,0.00,,,0.00,meteohub,2013-08-07 13:10:00,
2013-08-07 09:16:00,70.2,67.1,30.02,WNW,287,0.0,1.0,90,0.00,,,0.00,meteohub,2013-08-07 13:16:00,
2013-08-07 09:22:00,70.2,66.7,30.02,SSW,205,0.0,0.0,89,0.00,,,0.00,meteohub,2013-08-07 13:22:00,
2013-08-07 09:27:00,70.3,66.9,30.02,SW,226,0.0,5.0,89,0.00,,,0.00,meteohub,2013-08-07 13:27:00,
2013-08-07 09:32:00,70.5,67.1,30.01,SE,127,0.0,5.0,89,0.00,,,0.00,meteohub,2013-08-07 13:32:00,
2013-08-07 09:37:00,70.7,67.3,30.01,SE,132,0.0,3.0,89,0.00,,,0.00,meteohub,2013-08-07 13:37:00,
2013-08-07 09:42:00,71.1,67.3,30.00,SE,145,0.0,4.0,88,0.00,,,0.00,meteohub,2013-08-07 13:42:00,
2013-08-07 09:47:00,71.2,67.5,30.00,WNW,284,0.0,4.0,88,0.00,,,0.00,meteohub,2013-08-07 13:47:00,
2013-08-07 09:52:00,71.4,67.3,30.00,NW,318,0.0,3.0,87,0.00,,,0.00,meteohub,2013-08-07 13:52:00,
2013-08-07 09:57:00,71.8,67.6,30.01,SSW,192,1.0,3.0,87,0.00,,,0.00,meteohub,2013-08-07 13:57:00,
2013-08-07 10:02:00,71.8,67.3,30.01,WNW,283,2.0,3.0,86,0.00,,,0.00,meteohub,2013-08-07 14:02:00,
2013-08-07 10:07:00,71.8,67.3,30.01,SSE,160,0.0,3.0,86,0.00,,,0.00,meteohub,2013-08-07 14:07:00,
2013-08-07 10:13:00,71.6,67.5,30.01,SE,144,0.0,3.0,87,0.00,,,0.00,meteohub,2013-08-07 14:13:00,
2013-08-07 10:19:00,71.8,67.6,30.01,West,281,0.0,2.0,87,0.00,,,0.00,meteohub,2013-08-07 14:19:00,
2013-08-07 10:25:00,72.3,67.8,30.01,ESE,123,1.0,2.0,86,0.00,,,0.00,meteohub,2013-08-07 14:25:00,
2013-08-07 10:32:00,73.2,68.2,30.01,WNW,302,0.0,2.0,84,0.00,,,0.00,meteohub,2013-08-07 14:32:00,
2013-08-07 10:37:00,73.6,68.2,30.01,SSW,206,0.0,3.0,83,0.00,,,0.00,meteohub,2013-08-07 14:37:00,
2013-08-07 10:44:00,74.5,69.3,30.01,East,87,1.0,3.0,84,0.00,,,0.00,meteohub,2013-08-07 14:44:00,
2013-08-07 10:50:00,74.7,68.7,30.01,SSE,158,0.0,5.0,82,0.00,,,0.00,meteohub,2013-08-07 14:50:00,
2013-08-07 10:56:00,74.8,68.5,30.01,SSE,157,0.0,5.0,81,0.00,,,0.00,meteohub,2013-08-07 14:56:00,
2013-08-07 11:02:00,74.8,68.5,30.01,SSW,198,0.0,2.0,81,0.00,,,0.00,meteohub,2013-08-07 15:02:00,
2013-08-07 11:07:00,74.8,68.2,30.01,SW,226,0.0,1.0,80,0.00,,,0.00,meteohub,2013-08-07 15:07:00,
2013-08-07 11:12:00,74.5,68.2,30.01,ENE,69,1.0,3.0,81,0.00,,,0.00,meteohub,2013-08-07 15:12:00,
2013-08-07 11:17:00,74.5,68.5,30.01,SW,232,0.0,4.0,82,0.00,,,0.00,meteohub,2013-08-07 15:17:00,
2013-08-07 11:22:00,75.0,69.8,30.01,South,174,0.0,4.0,84,0.00,,,0.00,meteohub,2013-08-07 15:22:00,
2013-08-07 11:27:00,75.6,69.3,30.01,SW,224,0.0,2.0,81,0.00,,,0.00,meteohub,2013-08-07 15:27:00,
2013-08-07 11:32:00,76.3,69.6,30.01,West,263,1.0,2.0,80,0.00,,,0.00,meteohub,2013-08-07 15:32:00,
2013-08-07 11:37:00,76.6,69.6,30.01,SW,228,0.0,4.0,79,0.00,,,0.00,meteohub,2013-08-07 15:37:00,
2013-08-07 11:42:00,77.0,69.6,30.01,SW,217,3.0,4.0,78,0.00,,,0.00,meteohub,2013-08-07 15:42:00,
2013-08-07 11:47:00,77.0,69.3,30.01,SE,128,0.0,4.0,77,0.00,,,0.00,meteohub,2013-08-07 15:47:00,
2013-08-07 11:52:00,77.2,69.1,30.00,SSE,156,0.0,4.0,76,0.00,,,0.00,meteohub,2013-08-07 15:52:00,
2013-08-07 11:57:00,77.4,70.0,30.01,SSE,157,1.0,4.0,78,0.00,,,0.00,meteohub,2013-08-07 15:57:00,
2013-08-07 12:02:00,77.2,69.4,30.01,South,180,0.0,3.0,77,0.00,,,0.00,meteohub,2013-08-07 16:02:00,
2013-08-07 12:07:00,77.5,69.4,30.00,SW,229,3.0,3.0,76,0.00,,,0.00,meteohub,2013-08-07 16:07:00,
2013-08-07 12:12:00,78.1,69.1,30.01,WSW,246,1.0,3.0,74,0.00,,,0.00,meteohub,2013-08-07 16:12:00,
2013-08-07 12:17:00,78.1,69.4,30.01,West,279,2.0,3.0,75,0.00,,,0.00,meteohub,2013-08-07 16:17:00,
2013-08-07 12:22:00,78.1,69.4,30.01,SE,131,1.0,3.0,75,0.00,,,0.00,meteohub,2013-08-07 16:22:00,
2013-08-07 12:27:00,78.1,70.3,30.01,WSW,246,0.0,3.0,77,0.00,,,0.00,meteohub,2013-08-07 16:27:00,
2013-08-07 12:32:00,78.3,70.0,30.00,SSW,207,0.0,3.0,76,0.00,,,0.00,meteohub,2013-08-07 16:32:00,
2013-08-07 12:37:00,78.4,69.4,30.00,South,189,0.0,2.0,74,0.00,,,0.00,meteohub,2013-08-07 16:37:00,
2013-08-07 12:42:00,78.8,70.5,30.00,South,176,0.0,4.0,76,0.00,,,0.00,meteohub,2013-08-07 16:42:00,
2013-08-07 12:47:00,79.9,72.9,29.99,WNW,302,2.0,4.0,79,0.00,,,0.00,meteohub,2013-08-07 16:47:00,
2013-08-07 12:52:00,81.1,71.6,29.99,ENE,71,0.0,4.0,73,0.00,,,0.00,meteohub,2013-08-07 16:52:00,
2013-08-07 12:57:00,82.0,71.2,29.99,SE,136,0.0,3.0,70,0.00,,,0.00,meteohub,2013-08-07 16:57:00,
2013-08-07 13:02:00,81.9,70.7,29.99,WNW,294,1.0,5.0,69,0.00,,,0.00,meteohub,2013-08-07 17:02:00,
2013-08-07 13:07:00,81.7,70.9,29.99,SW,221,1.0,5.0,70,0.00,,,0.00,meteohub,2013-08-07 17:07:00,
2013-08-07 13:12:00,82.4,72.5,29.99,NNW,334,0.0,3.0,72,0.00,,,0.00,meteohub,2013-08-07 17:12:00,
2013-08-07 13:18:00,83.7,72.0,29.99,SSW,198,0.0,2.0,68,0.00,,,0.00,meteohub,2013-08-07 17:18:00,
2013-08-07 13:24:00,83.8,72.1,29.98,SSE,168,2.0,4.0,68,0.00,,,0.00,meteohub,2013-08-07 17:24:00,
2013-08-07 13:30:00,84.2,72.5,29.98,South,191,0.0,4.0,68,0.00,,,0.00,meteohub,2013-08-07 17:30:00,
2013-08-07 13:36:00,84.0,71.4,29.98,SSE,155,0.0,5.0,66,0.00,,,0.00,meteohub,2013-08-07 17:36:00,
2013-08-07 13:42:00,83.7,72.0,29.97,West,274,0.0,5.0,68,0.00,,,0.00,meteohub,2013-08-07 17:42:00,
2013-08-07 13:47:00,83.7,72.3,29.97,SE,128,1.0,5.0,69,0.00,,,0.00,meteohub,2013-08-07 17:47:00,
2013-08-07 13:52:00,82.9,71.8,29.97,WNW,287,0.0,3.0,69,0.00,,,0.00,meteohub,2013-08-07 17:52:00,
2013-08-07 13:57:00,82.8,73.2,29.98,West,274,0.0,2.0,73,0.00,,,0.00,meteohub,2013-08-07 17:57:00,
2013-08-07 14:02:00,83.3,72.1,29.97,SSW,202,1.0,5.0,69,0.00,,,0.00,meteohub,2013-08-07 18:02:00,
2013-08-07 14:07:00,84.4,72.7,29.97,South,188,1.0,5.0,68,0.00,,,0.00,meteohub,2013-08-07 18:07:00,
2013-08-07 14:12:00,85.5,73.2,29.96,SSE,151,0.0,5.0,67,0.00,,,0.00,meteohub,2013-08-07 18:12:00,
2013-08-07 14:17:00,85.8,72.1,29.96,North,5,1.0,5.0,64,0.00,,,0.00,meteohub,2013-08-07 18:17:00,
2013-08-07 14:22:00,86.2,74.3,29.96,West,270,2.0,6.0,68,0.00,,,0.00,meteohub,2013-08-07 18:22:00,
2013-08-07 14:27:00,86.4,73.6,29.96,South,178,2.0,6.0,66,0.00,,,0.00,meteohub,2013-08-07 18:27:00,
2013-08-07 14:32:00,86.4,72.7,29.96,South,173,1.0,6.0,64,0.00,,,0.00,meteohub,2013-08-07 18:32:00,
2013-08-07 14:37:00,85.6,73.4,29.96,East,84,0.0,4.0,67,0.00,,,0.00,meteohub,2013-08-07 18:37:00,
2013-08-07 14:42:00,85.6,73.0,29.96,SSW,204,1.0,4.0,66,0.00,,,0.00,meteohub,2013-08-07 18:42:00,
2013-08-07 14:47:00,84.9,72.3,29.96,SW,232,0.0,5.0,66,0.00,,,0.00,meteohub,2013-08-07 18:47:00,
2013-08-07 14:52:00,84.6,72.0,29.96,SSE,165,1.0,5.0,66,0.00,,,0.00,meteohub,2013-08-07 18:52:00,
2013-08-07 14:57:00,84.7,73.9,29.96,WNW,293,1.0,5.0,70,0.00,,,0.00,meteohub,2013-08-07 18:57:00,
2013-08-07 15:02:00,85.5,72.9,29.95,South,171,0.0,4.0,66,0.00,,,0.00,meteohub,2013-08-07 19:02:00,
2013-08-07 15:07:00,85.3,72.7,29.95,SSE,148,0.0,3.0,66,0.00,,,0.00,meteohub,2013-08-07 19:07:00,
2013-08-07 15:12:00,84.7,72.5,29.95,SW,226,0.0,3.0,67,0.00,,,0.00,meteohub,2013-08-07 19:12:00,
2013-08-07 15:17:00,84.0,72.0,29.95,SE,127,1.0,5.0,67,0.00,,,0.00,meteohub,2013-08-07 19:17:00,
2013-08-07 15:22:00,83.5,72.3,29.95,SE,144,1.0,5.0,69,0.00,,,0.00,meteohub,2013-08-07 19:22:00,
2013-08-07 15:27:00,83.1,71.4,29.95,South,188,1.0,6.0,68,0.00,,,0.00,meteohub,2013-08-07 19:27:00,
2013-08-07 15:32:00,82.9,71.2,29.94,NW,320,2.0,6.0,68,0.00,,,0.00,meteohub,2013-08-07 19:32:00,
2013-08-07 15:37:00,83.7,72.3,29.94,ESE,118,2.0,3.0,69,0.00,,,0.00,meteohub,2013-08-07 19:37:00,
2013-08-07 15:42:00,84.7,71.6,29.94,South,177,1.0,5.0,65,0.00,,,0.00,meteohub,2013-08-07 19:42:00,
2013-08-07 15:47:00,85.3,71.8,29.94,WNW,284,1.0,7.0,64,0.00,,,0.00,meteohub,2013-08-07 19:47:00,
2013-08-07 15:52:00,85.3,71.8,29.94,WSW,257,2.0,7.0,64,0.00,,,0.00,meteohub,2013-08-07 19:52:00,
2013-08-07 15:57:00,84.7,71.2,29.94,SSE,168,1.0,4.0,64,0.00,,,0.00,meteohub,2013-08-07 19:57:00,
2013-08-07 16:02:00,84.0,71.1,29.94,SSE,154,1.0,5.0,65,0.00,,,0.00,meteohub,2013-08-07 20:02:00,
2013-08-07 16:07:00,83.8,71.2,29.94,SSW,205,2.0,5.0,66,0.00,,,0.00,meteohub,2013-08-07 20:07:00,
2013-08-07 16:12:00,83.8,71.2,29.94,West,270,1.0,5.0,66,0.00,,,0.00,meteohub,2013-08-07 20:12:00,
2013-08-07 16:17:00,84.4,70.9,29.94,NNE,25,0.0,4.0,64,0.00,,,0.00,meteohub,2013-08-07 20:17:00,
2013-08-07 16:22:00,84.2,71.2,29.94,ESE,104,2.0,3.0,65,0.00,,,0.00,meteohub,2013-08-07 20:22:00,
2013-08-07 16:27:00,83.8,70.3,29.93,ESE,109,1.0,6.0,64,0.00,,,0.00,meteohub,2013-08-07 20:27:00,
2013-08-07 16:32:00,83.7,71.6,29.93,WNW,288,1.0,6.0,67,0.00,,,0.00,meteohub,2013-08-07 20:32:00,
2013-08-07 16:37:00,83.7,70.7,29.94,East,82,6.0,6.0,65,0.00,,,0.00,meteohub,2013-08-07 20:37:00,
2013-08-07 16:42:00,83.5,70.5,29.94,SE,130,0.0,7.0,65,0.00,,,0.00,meteohub,2013-08-07 20:42:00,
2013-08-07 16:47:00,82.9,71.2,29.94,SSE,155,2.0,7.0,68,0.00,,,0.00,meteohub,2013-08-07 20:47:00,
2013-08-07 16:52:00,82.2,71.4,29.94,SSE,161,2.0,7.0,70,0.00,,,0.00,meteohub,2013-08-07 20:52:00,
2013-08-07 16:57:00,81.7,70.9,29.94,SE,140,1.0,7.0,70,0.00,,,0.00,meteohub,2013-08-07 20:57:00,
2013-08-07 17:02:00,81.3,70.5,29.94,South,188,1.0,7.0,70,0.00,,,0.00,meteohub,2013-08-07 21:02:00,
2013-08-07 17:07:00,81.0,70.7,29.95,ESE,121,1.0,6.0,71,0.00,,,0.00,meteohub,2013-08-07 21:07:00,
2013-08-07 17:12:00,80.4,70.2,29.95,SSW,207,2.0,4.0,71,0.00,,,0.00,meteohub,2013-08-07 21:12:00,
2013-08-07 17:17:00,79.9,70.0,29.95,WNW,293,3.0,5.0,72,0.00,,,0.00,meteohub,2013-08-07 21:17:00,
2013-08-07 17:22:00,79.2,70.2,29.96,South,172,1.0,6.0,74,0.00,,,0.00,meteohub,2013-08-07 21:22:00,
2013-08-07 17:27:00,78.6,70.0,29.96,SE,144,4.0,8.0,75,0.00,,,0.00,meteohub,2013-08-07 21:27:00,
2013-08-07 17:32:00,77.7,70.0,29.95,South,184,1.0,8.0,77,0.00,,,0.00,meteohub,2013-08-07 21:32:00,
2013-08-07 17:37:00,77.2,69.8,29.94,ESE,103,1.0,7.0,78,0.00,,,0.00,meteohub,2013-08-07 21:37:00,
2013-08-07 17:42:00,76.6,70.0,29.94,SSW,202,4.0,7.0,80,0.00,,,0.00,meteohub,2013-08-07 21:42:00,
2013-08-07 17:47:00,76.3,69.6,29.94,ESE,118,1.0,5.0,80,0.00,,,0.00,meteohub,2013-08-07 21:47:00,
2013-08-07 17:52:00,75.7,69.1,29.94,SE,128,1.0,5.0,80,0.00,,,0.00,meteohub,2013-08-07 21:52:00,
2013-08-07 17:57:00,75.7,68.7,29.94,East,82,0.0,5.0,79,0.00,,,0.00,meteohub,2013-08-07 21:57:00,
2013-08-07 18:02:00,75.7,68.0,29.94,SSE,158,4.0,5.0,77,0.00,,,0.00,meteohub,2013-08-07 22:02:00,
2013-08-07 18:07:00,75.6,67.8,29.94,South,175,1.0,5.0,77,0.00,,,0.00,meteohub,2013-08-07 22:07:00,
2013-08-07 18:12:00,75.6,68.2,29.95,West,275,2.0,5.0,78,0.00,,,0.00,meteohub,2013-08-07 22:12:00,
2013-08-07 18:17:00,75.4,67.6,29.95,ENE,70,3.0,5.0,77,0.00,,,0.00,meteohub,2013-08-07 22:17:00,
2013-08-07 18:22:00,75.2,67.8,29.96,WSW,244,0.0,6.0,78,0.00,,,0.00,meteohub,2013-08-07 22:22:00,
2013-08-07 18:27:00,75.0,67.6,29.96,West,281,0.0,6.0,78,0.00,,,0.00,meteohub,2013-08-07 22:27:00,
2013-08-07 18:32:00,74.8,67.8,29.96,SSE,152,0.0,6.0,79,0.00,,,0.00,meteohub,2013-08-07 22:32:00,
2013-08-07 18:37:00,74.7,68.0,29.96,WSW,252,0.0,2.0,80,0.00,,,0.00,meteohub,2013-08-07 22:37:00,
2013-08-07 18:42:00,74.3,67.6,29.96,SW,225,2.0,3.0,80,0.00,,,0.00,meteohub,2013-08-07 22:42:00,
2013-08-07 18:47:00,73.9,67.5,29.96,NNW,347,0.0,3.0,80,0.00,,,0.00,meteohub,2013-08-07 22:47:00,
2013-08-07 18:52:00,73.8,67.6,29.96,ESE,115,0.0,3.0,81,0.00,,,0.00,meteohub,2013-08-07 22:52:00,
2013-08-07 18:57:00,73.6,67.5,29.96,ESE,106,0.0,3.0,81,0.00,,,0.00,meteohub,2013-08-07 22:57:00,
2013-08-07 19:02:00,73.4,67.6,29.96,SE,142,1.0,2.0,82,0.00,,,0.00,meteohub,2013-08-07 23:02:00,
2013-08-07 19:07:00,73.2,68.2,29.96,ESE,121,0.0,1.0,84,0.00,,,0.00,meteohub,2013-08-07 23:07:00,
2013-08-07 19:12:00,72.9,67.8,29.96,SE,139,0.0,2.0,84,0.00,,,0.00,meteohub,2013-08-07 23:12:00,
2013-08-07 19:17:00,72.7,67.8,29.97,ESE,111,0.0,2.0,85,0.00,,,0.00,meteohub,2013-08-07 23:17:00,
2013-08-07 19:22:00,72.3,67.8,29.97,ESE,111,0.0,2.0,86,0.00,,,0.00,meteohub,2013-08-07 23:22:00,
2013-08-07 19:27:00,72.1,68.0,29.96,ESE,111,0.0,1.0,87,0.00,,,0.00,meteohub,2013-08-07 23:27:00,
2013-08-07 19:32:00,71.8,67.6,29.96,ESE,111,0.0,1.0,87,0.00,,,0.00,meteohub,2013-08-07 23:32:00,
2013-08-07 19:37:00,71.4,67.1,29.97,ESE,111,0.0,0.0,86,0.00,,,0.00,meteohub,2013-08-07 23:37:00,
2013-08-07 19:42:00,71.2,67.5,29.97,ESE,111,0.0,0.0,88,0.00,,,0.00,meteohub,2013-08-07 23:42:00,
2013-08-07 19:47:00,71.1,67.3,29.98,ESE,111,0.0,0.0,88,0.01,,,0.01,meteohub,2013-08-07 23:47:00,
2013-08-07 19:52:00,70.7,67.6,29.98,NE,42,0.0,2.0,90,0.01,,,0.01,meteohub,2013-08-07 23:52:00,
2013-08-07 19:57:00,70.3,67.3,29.99,NE,42,0.0,2.0,90,0.01,,,0.01,meteohub,2013-08-07 23:57:00,
2013-08-07 20:02:00,70.2,67.5,29.99,NE,42,0.0,2.0,91,0.01,,,0.01,meteohub,2013-08-08 00:02:00,
2013-08-07 20:07:00,70.0,67.5,29.99,NE,42,0.0,1.0,92,0.02,,,0.02,meteohub,2013-08-08 00:07:00,
2013-08-07 20:18:00,69.8,67.3,30.00,NE,42,0.0,0.0,92,0.02,,,0.02,meteohub,2013-08-08 00:18:00,
2013-08-07 20:24:00,69.6,67.3,30.00,NE,42,0.0,0.0,92,0.02,,,0.02,meteohub,2013-08-08 00:24:00,
2013-08-07 20:43:00,69.1,67.3,30.01,SE,128,0.0,1.0,94,0.04,,,0.05,meteohub,2013-08-08 00:43:00,
2013-08-07 20:49:00,69.1,67.3,30.01,SSE,157,0.0,2.0,94,0.05,,,0.06,meteohub,2013-08-08 00:49:00,
2013-08-07 20:55:00,69.1,67.6,30.02,WNW,298,0.0,2.0,95,0.11,,,0.12,meteohub,2013-08-08 00:55:00,
2013-08-07 21:01:00,68.9,67.5,30.02,SW,236,0.0,1.0,95,0.18,,,0.19,meteohub,2013-08-08 01:01:00,
2013-08-07 21:07:00,68.9,67.5,30.02,NW,304,0.0,1.0,95,0.22,,,0.24,meteohub,2013-08-08 01:07:00,
2013-08-07 21:12:00,68.7,67.3,30.02,NW,325,1.0,1.0,95,0.23,,,0.25,meteohub,2013-08-08 01:12:00,
2013-08-07 21:17:00,68.7,67.3,30.03,NNW,333,1.0,2.0,95,0.24,,,0.26,meteohub,2013-08-08 01:17:00,
2013-08-07 21:22:00,68.7,67.3,30.04,NNW,348,0.0,2.0,95,0.24,,,0.27,meteohub,2013-08-08 01:22:00,
2013-08-07 21:27:00,68.7,67.3,30.04,NNW,336,0.0,2.0,95,0.25,,,0.28,meteohub,2013-08-08 01:27:00,
2013-08-07 21:32:00,68.7,67.5,30.04,East,94,0.0,2.0,96,0.31,,,0.35,meteohub,2013-08-08 01:32:00,
2013-08-07 21:47:00,68.4,67.1,30.01,SW,217,1.0,2.0,96,0.60,,,0.68,meteohub,2013-08-08 01:47:00,
2013-08-07 21:52:00,68.2,66.7,30.02,SW,227,0.0,2.0,95,0.59,,,0.69,meteohub,2013-08-08 01:52:00,
2013-08-07 21:57:00,68.2,66.7,30.02,SW,227,0.0,2.0,95,0.59,,,0.71,meteohub,2013-08-08 01:57:00,
2013-08-07 22:02:00,68.0,66.7,30.02,SW,227,0.0,2.0,96,0.50,,,0.71,meteohub,2013-08-08 02:02:00,
2013-08-07 22:07:00,67.8,66.6,30.02,SW,227,0.0,1.0,96,0.49,,,0.73,meteohub,2013-08-08 02:07:00,
2013-08-07 22:12:00,67.8,66.6,30.01,SSW,212,0.0,1.0,96,0.48,,,0.74,meteohub,2013-08-08 02:12:00,
2013-08-07 22:17:00,67.8,66.6,30.01,SSW,205,0.0,1.0,96,0.47,,,0.74,meteohub,2013-08-08 02:17:00,
2013-08-07 22:22:00,67.8,66.6,30.00,SSW,205,0.0,1.0,96,0.48,,,0.75,meteohub,2013-08-08 02:22:00,
2013-08-07 22:27:00,67.8,66.6,29.99,SSW,205,0.0,1.0,96,0.46,,,0.75,meteohub,2013-08-08 02:27:00,
2013-08-07 22:32:00,68.0,66.7,29.99,SSW,205,0.0,0.0,96,0.36,,,0.75,meteohub,2013-08-08 02:32:00,
2013-08-07 22:37:00,67.8,66.6,29.99,SSW,205,0.0,1.0,96,0.18,,,0.76,meteohub,2013-08-08 02:37:00,
2013-08-07 22:42:00,67.8,66.6,29.99,SSW,200,0.0,1.0,96,0.10,,,0.76,meteohub,2013-08-08 02:42:00,
2013-08-07 22:47:00,67.8,66.6,29.99,South,175,0.0,1.0,96,0.08,,,0.76,meteohub,2013-08-08 02:47:00,
2013-08-07 22:52:00,67.8,66.6,29.98,SE,132,0.0,2.0,96,0.06,,,0.76,meteohub,2013-08-08 02:52:00,
2013-08-07 22:57:00,67.6,66.4,29.99,SE,141,0.0,3.0,96,0.05,,,0.76,meteohub,2013-08-08 02:57:00,
2013-08-07 23:02:00,67.6,66.4,29.98,SSE,163,0.0,3.0,96,0.04,,,0.76,meteohub,2013-08-08 03:02:00,
2013-08-07 23:07:00,67.5,66.2,29.98,ESE,109,0.0,3.0,96,0.03,,,0.76,meteohub,2013-08-08 03:07:00,
2013-08-07 23:12:00,67.5,66.2,29.98,SE,126,0.0,3.0,96,0.02,,,0.76,meteohub,2013-08-08 03:12:00,
2013-08-07 23:18:00,67.5,66.2,29.98,ESE,116,0.0,3.0,96,0.01,,,0.76,meteohub,2013-08-08 03:18:00,
2013-08-07 23:24:00,67.3,66.0,29.98,ESE,119,0.0,2.0,96,0.01,,,0.76,meteohub,2013-08-08 03:24:00,
2013-08-07 23:30:00,67.3,66.0,29.98,West,263,0.0,2.0,96,0.01,,,0.76,meteohub,2013-08-08 03:30:00,
2013-08-07 23:36:00,67.3,66.0,29.98,West,261,0.0,2.0,96,0.00,,,0.76,meteohub,2013-08-08 03:36:00,
2013-08-07 23:42:00,67.1,65.8,29.98,SE,143,1.0,2.0,96,0.00,,,0.76,meteohub,2013-08-08 03:42:00,
2013-08-07 23:48:00,67.1,66.2,29.98,SSE,160,0.0,2.0,97,0.00,,,0.76,meteohub,2013-08-08 03:48:00,
2013-08-07 23:54:00,67.1,66.2,29.98,SSE,154,0.0,2.0,97,0.00,,,0.76,meteohub,2013-08-08 03:54:00,